Date,TemperatureHighF,TemperatureAvgF,TemperatureLowF,DewpointHighF,DewpointAvgF,DewpointLowF,HumidityHigh,HumidityAvg,HumidityLow,PressureMaxIn,PressureMinIn,WindSpeedMaxMPH,WindSpeedAvgMPH,GustSpeedMaxMPH,PrecipitationSumIn
2013-1-4,27.6,20.9,16.4,20.0,16.3,13.0,88,82,73,30.23,30.18,7,3,13,0.00
2013-1-5,26.4,19.5,13.2,20.0,15.5,11.0,91,84,76,30.18,29.95,16,6,20,0.00
2013-1-6,23.9,16.6,10.6,17.0,12.0,6.0,90,82,72,30.34,30.14,10,4,15,0.00
2013-1-7,35.7,28.5,20.5,29.0,23.7,18.0,93,82,75,30.17,30.00,20,6,25,0.00
2013-1-8,37.3,26.5,13.2,32.0,23.3,11.0,96,88,79,30.07,29.83,13,4,22,0.00
2013-1-9,41.4,32.3,27.2,31.0,27.7,24.0,91,83,63,30.42,30.08,12,4,18,0.00
2013-1-10,38.1,33.1,28.1,34.0,29.1,24.0,97,85,68,30.37,29.73,11,4,14,0.16
2013-1-11,42.5,37.7,32.8,42.0,37.1,31.0,98,97,93,29.73,29.43,16,5,23,0.00
2013-1-12,31.6,16.7,9.6,29.0,9.7,3.0,91,74,63,30.14,29.55,18,8,30,0.00
2013-1-13,15.0,8.6,4.4,7.0,2.3,-1.0,81,75,67,30.38,30.13,14,5,22,0.00
2013-1-14,25.8,15.7,7.4,15.0,9.5,4.0,85,77,61,30.51,30.37,8,3,10,0.00
2013-1-15,32.3,22.2,14.0,20.0,14.4,10.0,83,72,54,30.40,29.99,17,6,22,0.00
2013-1-16,44.3,30.0,16.5,36.0,24.7,11.0,88,81,72,30.26,29.83,19,7,22,0.00
2013-1-17,32.4,20.9,8.9,24.0,12.9,2.0,86,71,46,30.47,30.28,11,3,12,0.00
2013-1-18,48.4,36.5,25.6,34.0,29.8,22.0,91,78,59,30.32,29.84,24,6,24,0.00
2013-1-19,46.4,32.9,9.3,33.0,25.1,1.0,87,74,58,30.30,29.78,19,8,33,0.00
2013-1-20,12.0,7.6,4.0,5.0,1.4,-4.0,83,76,69,30.49,30.31,14,5,21,0.00
2013-1-21,6.7,-0.6,-7.6,-3.0,-8.0,-15.0,79,71,62,30.51,30.41,18,6,25,0.00
2013-1-22,14.0,5.9,-2.4,7.0,-2.0,-8.0,79,70,56,30.52,30.32,8,2,12,0.00
2013-1-23,20.5,12.4,-1.6,13.0,4.8,-10.0,81,71,57,30.65,30.23,17,6,26,0.00
2013-1-24,16.6,6.9,-2.3,4.0,-5.0,-10.0,74,59,44,30.71,30.28,11,4,18,0.00
2013-1-25,29.2,16.6,5.6,20.0,7.0,-1.0,79,66,51,30.37,30.12,21,7,27,0.00
2013-1-26,29.8,17.1,2.6,15.0,6.2,-2.0,81,64,45,30.39,30.16,15,4,20,0.00
2013-1-27,32.8,31.3,27.1,32.0,26.8,15.0,96,85,59,30.15,29.80,10,2,16,0.13
2013-1-28,34.6,32.0,29.3,34.0,31.4,29.0,98,97,96,29.93,29.61,6,1,9,0.01
2013-1-29,34.5,31.3,26.2,34.0,30.0,24.0,98,95,91,29.74,29.56,16,6,24,0.01
2013-1-30,26.0,17.9,9.1,24.0,13.7,4.0,94,84,76,29.89,29.61,22,11,29,0.00
2013-1-31,8.9,1.4,-5.3,5.0,-5.3,-12.0,84,73,64,30.45,29.90,22,9,27,0.00
2013-2-1,18.8,5.0,-6.9,15.0,-1.3,-13.0,84,75,63,30.46,30.09,12,4,24,0.00
2013-2-2,30.5,16.0,6.2,27.0,11.6,3.0,93,83,67,30.26,30.02,19,5,27,0.00
2013-2-3,28.1,19.5,10.8,23.0,14.7,7.0,89,82,70,30.20,29.85,17,4,25,0.00
2013-2-4,23.7,19.1,12.2,20.0,13.8,9.0,88,80,67,30.10,29.86,14,5,17,0.00
2013-2-5,37.5,27.2,16.9,31.0,23.3,14.0,91,85,72,30.15,29.80,18,6,24,0.00
2013-2-6,40.6,29.6,15.0,34.0,25.4,13.0,90,84,77,30.14,29.89,16,4,24,0.00
2013-2-7,36.4,27.2,22.1,34.0,25.4,20.0,96,93,89,30.27,29.95,12,6,20,0.00
2013-2-8,28.4,25.1,21.0,24.0,21.8,19.0,91,87,81,30.41,30.26,11,4,19,0.00
2013-2-9,34.6,29.0,25.1,31.0,26.6,23.0,92,90,85,30.27,29.87,16,7,25,0.00
2013-2-10,39.1,33.8,27.9,38.0,32.7,26.0,97,95,90,29.87,29.25,17,6,25,0.48
2013-2-11,28.3,25.0,20.4,27.0,20.5,16.0,94,83,75,30.15,29.51,24,11,31,0.00
2013-2-12,39.4,29.1,20.4,30.0,23.7,16.0,89,80,67,30.16,29.89,14,3,18,0.00
2013-2-13,46.5,34.6,24.4,36.0,29.5,22.0,92,82,66,29.89,29.64,11,4,15,0.00
2013-2-14,37.1,29.1,16.1,32.0,25.1,10.0,94,84,73,30.24,29.67,22,7,24,0.01
2013-2-15,21.9,15.8,10.4,14.0,9.7,6.0,84,77,67,30.39,30.25,13,5,17,0.00
2013-2-16,31.7,19.2,9.0,22.0,14.3,6.0,92,82,58,30.36,30.13,7,2,9,0.00
2013-2-17,38.8,28.8,18.1,30.0,23.3,15.0,89,80,70,30.12,29.62,20,6,23,0.00
2013-2-18,36.3,25.9,6.7,32.0,20.4,1.0,89,80,71,29.96,29.57,30,9,30,0.00
2013-2-19,14.0,5.4,-1.0,3.0,-2.1,-7.0,80,71,61,30.49,29.96,25,11,32,0.00
2013-2-20,22.0,8.7,-3.8,11.0,1.1,-8.0,83,72,55,30.55,30.41,7,3,12,0.00
2013-2-21,25.7,18.4,11.9,17.0,12.1,8.0,92,77,57,30.45,30.00,15,6,25,0.00
2013-2-22,24.5,20.1,13.7,22.0,17.8,12.0,92,90,87,30.00,29.90,9,5,18,0.01
2013-2-23,26.5,16.8,8.1,21.0,13.6,6.0,91,87,79,30.00,29.93,6,2,10,0.01
2013-2-24,29.7,21.5,11.1,27.0,18.6,9.0,91,88,80,30.14,30.00,4,1,8,0.00
2013-2-25,28.2,26.7,24.8,26.0,24.9,23.0,95,92,90,30.15,30.02,7,2,10,0.00
2013-2-26,31.0,26.2,18.7,27.0,23.6,17.0,95,90,82,30.03,29.85,17,7,18,0.00
2013-2-27,31.1,25.2,20.6,25.0,21.7,18.0,90,86,77,30.07,29.87,13,8,24,0.00
2013-2-28,29.0,24.8,18.0,24.0,21.6,16.0,90,87,82,30.24,30.07,12,5,14,0.00
2013-3-1,26.3,23.5,16.6,22.0,18.7,13.0,91,82,68,30.40,30.23,10,5,18,0.00
2013-3-2,27.7,18.9,7.4,19.0,14.3,5.0,90,82,66,30.39,30.21,6,2,8,0.00
2013-3-3,32.7,26.8,23.0,25.0,21.7,19.0,93,81,70,30.21,29.94,11,4,18,0.00
2013-3-4,29.9,27.2,24.4,28.0,25.6,23.0,95,93,91,30.03,29.84,14,5,18,0.00
2013-3-5,29.0,26.0,20.7,27.0,23.5,18.0,95,90,85,30.35,29.98,17,7,23,0.01
2013-3-6,25.7,21.8,17.6,21.0,18.3,15.0,91,86,78,30.48,30.35,11,4,14,0.00
2013-3-7,29.5,19.3,8.3,23.0,16.1,6.0,92,87,78,30.41,30.30,9,3,17,0.01
2013-3-8,36.3,29.0,19.1,33.0,25.7,17.0,93,88,80,30.34,30.07,11,4,19,0.09
2013-3-9,38.2,36.0,33.8,38.0,35.2,33.0,97,96,94,30.06,29.67,15,6,21,0.69
2013-3-10,33.7,31.2,26.7,33.0,30.1,26.0,97,96,93,29.89,29.72,18,11,27,0.06
2013-3-11,27.0,25.0,22.8,26.0,22.5,20.0,96,90,82,29.95,29.81,17,8,25,0.00
2013-3-12,29.1,25.1,20.1,27.0,20.7,16.0,93,83,76,30.28,29.95,20,7,27,0.00
2013-3-13,28.8,21.1,13.5,20.0,16.4,11.0,89,82,66,30.48,30.28,9,4,15,0.01
2013-3-14,40.7,32.7,21.8,33.0,27.0,18.0,90,80,66,30.32,30.07,11,4,13,0.00
2013-3-15,39.5,35.6,32.5,36.0,33.2,31.0,96,91,86,30.06,29.76,11,4,14,0.00
2013-3-16,33.2,26.6,18.8,32.0,22.4,14.0,97,84,75,30.27,29.85,15,7,23,0.00
2013-3-17,32.1,24.9,13.7,29.0,19.6,9.0,90,80,72,30.27,29.88,12,6,16,0.00
2013-3-18,32.4,23.9,14.3,31.0,18.8,7.0,96,81,67,30.01,29.70,21,10,29,0.00
2013-3-19,29.7,18.0,9.9,20.0,9.6,4.0,78,70,58,30.34,29.99,19,7,21,0.00
2013-3-20,23.1,16.2,9.9,10.0,7.1,4.0,81,68,54,30.39,30.21,17,8,26,0.00
2013-3-21,25.4,17.0,7.6,16.0,9.5,4.0,86,73,58,30.21,30.08,9,2,13,0.00
2013-3-22,30.0,23.1,12.9,21.0,16.2,10.0,92,76,60,30.15,30.09,11,1,11,0.00
2013-3-23,33.0,28.0,22.3,24.0,21.3,19.0,91,76,59,30.20,30.11,10,4,14,0.00
2013-3-24,30.2,27.4,23.9,27.0,23.9,20.0,94,87,75,30.13,29.98,13,7,19,0.00
2013-3-25,34.1,28.6,24.9,27.0,20.8,-99.9,93,78,62,30.32,30.05,16,-13,22,0.01
2013-3-26,37.3,26.8,19.2,26.0,20.6,16.0,87,78,60,30.37,30.32,9,4,14,0.00
2013-3-27,40.6,32.7,23.2,30.0,26.2,21.0,93,78,61,30.37,30.30,9,2,11,0.00
2013-3-28,48.3,37.9,30.0,38.0,31.7,26.0,90,79,66,30.35,30.25,8,2,14,0.00
2013-3-29,55.6,44.6,33.5,43.0,36.7,30.0,88,75,56,30.28,30.07,11,4,20,0.00
2013-3-30,57.5,48.0,39.1,48.0,41.3,35.0,91,78,63,30.07,29.86,13,5,21,0.00
2013-3-31,39.8,35.1,25.3,36.0,27.6,17.0,96,76,49,30.15,29.87,20,9,28,0.00
2013-4-1,34.8,27.0,20.0,21.0,16.0,13.0,79,64,46,30.34,30.16,16,6,22,0.00
2013-4-2,40.2,31.5,22.1,25.0,21.8,19.0,87,69,52,30.38,30.32,14,3,15,0.00
2013-4-3,47.7,36.5,25.2,31.0,25.9,21.0,85,67,52,30.42,30.20,15,5,23,0.00
2013-4-4,53.4,43.4,34.4,36.0,31.5,27.0,83,64,43,30.19,30.08,13,7,19,0.00
2013-4-5,52.4,40.6,28.8,35.0,30.1,26.0,90,68,49,30.21,29.80,11,5,20,0.00
2013-4-6,58.1,46.8,36.9,46.0,39.5,33.0,90,76,62,29.80,29.52,20,6,23,0.06
2013-4-7,54.4,42.2,32.0,47.0,38.3,31.0,95,86,71,29.95,29.70,12,4,17,0.06
2013-4-8,66.1,53.6,42.0,54.0,48.0,41.0,96,82,61,29.89,29.61,15,5,25,0.00
2013-4-9,46.8,39.6,36.2,44.0,37.9,35.0,96,94,88,30.09,29.79,22,11,34,1.60
2013-4-10,36.1,34.4,32.6,35.0,32.5,30.0,95,93,88,30.02,29.79,23,8,36,0.18
2013-4-11,37.1,34.6,32.7,36.0,33.7,32.0,97,96,95,29.79,29.58,9,4,12,0.67
2013-4-12,34.5,32.0,29.7,32.0,28.5,27.0,96,87,75,29.93,29.62,13,7,22,0.00
2013-4-13,43.3,35.1,27.4,34.0,29.0,25.0,91,79,63,30.00,29.86,12,5,14,0.00
2013-4-14,58.2,43.1,35.6,54.0,39.9,33.0,95,88,74,29.86,29.36,21,7,27,0.60
2013-4-15,41.8,37.1,32.6,34.0,29.4,26.0,84,74,64,30.07,29.59,16,8,27,0.00
2013-4-16,47.6,39.2,30.8,33.0,30.3,28.0,91,72,52,30.28,30.06,15,6,17,0.00
2013-4-17,39.2,37.9,36.1,37.0,34.9,32.0,96,88,77,30.26,29.77,16,8,25,0.78
2013-4-18,36.0,33.0,31.2,35.0,31.8,30.0,96,95,94,29.82,29.59,23,10,27,0.60
2013-4-19,35.6,31.4,27.9,30.0,26.2,24.0,94,81,66,30.08,29.65,26,11,31,0.04
2013-4-20,44.1,34.8,23.5,29.0,22.6,17.0,87,64,36,30.30,30.08,10,4,13,0.01
2013-4-21,63.6,46.3,36.8,49.0,39.4,28.0,90,78,47,30.29,30.01,18,6,27,0.21
2013-4-22,44.6,37.2,31.2,42.0,35.9,30.0,97,94,90,30.16,30.00,16,8,24,0.70
2013-4-23,37.1,31.0,25.5,30.0,25.8,22.0,95,82,61,30.20,30.13,17,8,24,0.14
2013-4-24,53.1,38.2,26.7,39.0,28.8,24.0,89,72,39,30.16,29.96,22,6,30,0.00
2013-4-25,60.3,43.5,28.9,36.0,28.4,21.0,85,58,34,30.26,30.06,14,5,17,0.00
2013-4-26,74.3,61.0,47.9,48.0,39.2,35.0,73,48,24,30.12,30.01,15,6,26,0.00
2013-4-27,69.9,57.5,43.2,51.0,46.9,42.0,94,70,45,30.12,29.92,11,5,20,0.00
2013-4-28,79.9,63.9,47.8,51.0,46.4,43.0,89,58,27,29.92,29.63,26,8,27,0.00
2013-4-29,76.5,63.6,50.9,60.0,53.9,48.0,91,72,47,29.77,29.46,11,4,24,0.42
2013-4-30,71.1,64.9,54.0,61.0,50.8,41.0,84,62,37,29.90,29.42,14,6,23,0.35
2013-5-1,52.2,38.2,32.2,46.0,35.7,31.0,96,91,76,30.45,29.89,20,10,26,0.19
2013-5-2,42.4,36.3,32.7,34.0,31.5,29.0,97,84,65,30.53,30.40,9,1,12,0.89
2013-5-3,36.3,34.0,32.1,33.0,30.6,28.0,94,87,80,30.39,30.09,0,0,0,0.05
2013-5-4,43.0,37.6,32.8,42.0,36.5,31.0,97,95,93,30.15,30.02,0,0,0,0.09
2013-5-5,52.2,45.5,41.0,49.0,43.8,40.0,97,94,88,30.16,30.09,0,0,0,0.00
2013-5-6,71.3,56.2,41.9,54.0,47.6,41.0,96,76,47,30.12,30.00,0,0,0,0.01
2013-5-7,74.9,62.8,49.0,55.0,49.7,46.0,92,66,37,30.05,29.92,0,0,0,0.00
2013-5-8,73.4,62.0,55.3,58.0,52.5,48.0,96,73,43,29.95,29.89,0,0,0,0.25
2013-5-9,60.6,56.2,47.3,58.0,54.0,45.0,97,92,84,29.99,29.85,0,0,0,0.02
2013-5-10,67.1,54.1,40.4,48.0,39.2,32.0,93,61,30,30.06,29.94,0,0,0,0.00
2013-5-11,58.1,49.3,42.5,43.0,27.4,17.0,71,45,24,30.19,29.93,0,0,0,0.00
2013-5-12,60.7,48.4,34.7,27.0,20.6,13.0,63,37,18,30.24,30.10,0,0,0,0.00
2013-5-13,81.2,62.1,43.9,48.0,36.0,21.0,53,39,28,30.11,29.71,0,0,0,0.00
2013-5-14,101.7,80.9,62.3,58.0,47.6,33.0,69,37,13,29.71,29.45,0,0,0,0.00
2013-5-15,79.9,68.7,56.8,47.0,43.1,34.0,60,41,25,29.88,29.67,0,0,0,0.00
2013-5-16,86.6,70.6,53.1,62.0,48.4,38.0,92,52,18,29.88,29.73,0,0,0,0.17
2013-5-17,81.8,68.6,62.2,67.0,62.8,59.0,94,82,56,29.86,29.77,0,0,0,0.09
2013-5-18,83.4,72.5,59.5,64.0,61.0,58.0,94,70,47,29.90,29.69,0,0,0,0.00
2013-5-19,76.2,69.4,63.6,67.0,63.7,62.0,94,82,66,29.72,29.45,0,0,0,0.73
2013-5-20,73.6,65.0,59.6,62.0,58.1,56.0,95,80,56,29.55,29.44,0,0,0,0.19
2013-5-21,62.9,59.5,55.2,59.0,52.9,49.0,94,79,63,29.62,29.46,0,0,0,0.02
2013-5-22,55.1,52.8,50.2,54.0,51.5,49.0,96,95,92,29.89,29.60,0,0,0,0.21
2013-5-23,64.0,55.9,48.5,49.0,44.5,37.0,94,69,38,30.27,29.91,0,0,0,0.00
2013-5-24,72.4,58.4,44.7,54.0,43.8,37.0,80,61,39,30.33,30.12,0,0,0,0.06
2013-5-25,59.9,53.7,50.1,52.0,49.5,47.0,95,86,67,30.17,30.09,0,0,0,0.16
2013-5-26,58.5,52.1,48.8,55.0,50.5,48.0,97,94,87,30.14,29.91,0,0,0,1.96
2013-5-27,64.9,58.4,53.2,62.0,57.1,52.0,98,95,86,29.96,29.71,0,0,0,0.54
2013-5-28,73.0,64.0,58.0,65.0,61.3,58.0,98,91,76,29.72,29.63,0,0,0,0.00
2013-5-29,75.1,66.5,59.0,69.0,63.5,58.0,98,90,76,29.73,29.57,0,0,0,0.42
2013-5-30,70.8,66.5,63.4,65.0,62.8,61.0,97,88,77,29.60,29.46,0,0,0,0.17
2013-5-31,77.6,67.9,59.1,62.0,55.1,50.0,88,66,38,29.55,29.51,0,0,0,0.01
2013-6-1,67.7,59.2,53.5,59.0,53.4,47.0,94,81,70,29.91,29.52,0,0,0,0.00
2013-6-2,67.1,57.2,49.8,47.0,42.7,36.0,86,61,33,30.06,29.91,0,0,0,0.00
2013-6-3,73.1,61.7,47.9,49.0,45.9,43.0,87,59,38,30.04,29.87,0,0,0,0.00
2013-6-4,63.2,57.8,54.3,56.0,53.6,50.0,96,86,62,30.01,29.91,0,0,0,0.95
2013-6-5,68.1,60.2,54.2,57.0,53.3,51.0,96,80,54,29.99,29.90,0,0,0,0.01
2013-6-6,63.2,58.3,53.0,54.0,52.4,51.0,95,81,65,29.98,29.89,0,0,0,0.00
2013-6-7,66.3,58.0,52.6,53.0,51.2,48.0,95,79,53,30.01,29.89,0,0,0,0.00
2013-6-8,67.4,58.8,51.9,60.0,54.7,49.0,95,86,64,29.89,29.75,0,0,0,0.51
2013-6-9,70.8,63.9,59.0,64.0,60.7,57.0,96,89,76,29.75,29.64,0,0,0,0.17
2013-6-10,77.0,65.4,57.2,64.0,60.6,57.0,98,86,61,29.84,29.73,0,0,0,0.01
2013-6-11,89.8,76.7,63.8,69.0,65.6,62.0,93,70,46,29.82,29.69,0,0,0,0.00
2013-6-12,82.9,72.6,62.2,73.0,67.8,58.0,95,85,70,29.81,29.61,0,0,0,0.46
2013-6-13,79.8,70.0,58.6,58.0,55.1,53.0,82,61,41,30.03,29.91,0,0,0,0.00
2013-6-14,76.4,69.2,62.4,65.0,61.2,57.0,94,76,61,30.02,29.78,0,0,0,0.14
2013-6-15,79.9,70.8,63.4,68.0,65.1,61.0,95,83,65,29.93,29.79,0,0,0,0.46
2013-6-16,86.9,74.4,61.3,65.0,55.1,45.0,94,57,25,29.91,29.82,0,0,0,0.01
2013-6-17,86.2,74.8,63.7,60.0,54.0,44.0,76,51,23,29.92,29.84,0,0,0,0.00
2013-6-18,80.4,71.5,60.9,59.0,56.0,54.0,87,60,40,29.98,29.90,0,0,0,0.00
2013-6-19,85.3,75.0,63.6,64.0,59.6,57.0,81,61,39,29.99,29.87,0,0,0,0.00
2013-6-20,88.7,78.8,67.6,67.0,64.5,62.0,82,63,46,29.92,29.80,0,0,0,0.00
2013-6-21,88.7,78.1,63.9,74.0,68.7,61.0,92,73,59,29.88,29.71,0,0,0,0.04
2013-6-22,90.3,75.7,65.2,73.0,66.9,62.0,93,76,45,29.95,29.73,0,0,0,0.13
2013-6-23,81.9,75.4,65.8,70.0,66.8,63.0,94,76,55,29.84,29.62,0,0,0,0.45
2013-6-24,75.4,71.4,66.8,70.0,67.9,65.0,95,88,76,29.84,29.67,7,1,14,0.18
2013-6-25,87.5,77.4,67.4,74.0,69.8,66.0,95,79,52,29.76,29.63,11,4,19,0.00
2013-6-26,89.2,80.8,72.7,75.0,68.6,58.0,95,70,37,29.78,29.58,12,3,19,0.00
2013-6-27,87.7,78.3,69.2,68.0,61.1,53.0,77,57,31,29.85,29.77,15,4,21,0.00
2013-6-28,82.2,75.5,66.7,60.0,56.6,51.0,71,53,37,29.81,29.73,23,3,30,0.00
2013-6-29,75.3,68.9,64.0,62.0,58.4,54.0,90,70,49,29.89,29.72,0,0,0,0.09
2013-6-30,78.4,67.7,56.6,58.0,50.7,43.0,86,58,29,30.06,29.89,0,0,0,0.00
2013-7-1,83.6,72.1,59.2,59.0,53.3,48.0,83,55,30,30.12,30.06,0,0,0,0.00
2013-7-2,83.6,73.3,61.4,61.0,54.8,49.0,81,55,31,30.08,29.98,0,0,0,0.00
2013-7-3,85.1,72.8,58.7,61.0,55.2,50.0,88,58,32,30.01,29.89,0,0,0,0.00
2013-7-4,86.6,75.4,62.9,60.0,56.8,53.0,85,56,33,29.93,29.84,0,0,0,0.00
2013-7-5,88.0,76.7,67.2,64.0,57.3,-99.9,73,55,43,29.87,29.78,0,-22,0,0.00
2013-7-6,91.7,79.2,68.8,67.0,63.3,60.0,76,59,41,29.83,29.73,0,0,0,0.00
2013-7-7,91.1,81.6,71.9,71.0,67.3,65.0,89,63,47,29.84,29.75,0,0,0,0.02
2013-7-8,92.6,79.6,70.6,72.0,68.9,63.0,95,73,42,29.90,29.82,0,0,0,0.00
2013-7-9,91.8,81.3,74.3,73.0,70.3,66.0,93,71,48,29.87,29.76,0,0,0,0.27
2013-7-10,80.8,72.9,63.9,68.0,57.6,51.0,85,61,37,30.01,29.87,0,0,0,0.00
2013-7-11,85.2,73.5,61.6,58.0,56.2,52.0,81,58,33,30.07,29.93,0,0,0,0.00
2013-7-12,87.3,76.2,64.7,63.0,60.3,57.0,78,59,41,29.97,29.86,0,0,0,0.00
2013-7-13,79.8,72.7,67.8,65.0,61.1,57.0,77,67,58,29.99,29.88,0,0,0,0.00
2013-7-14,87.0,76.7,66.7,64.0,62.3,60.0,84,63,41,30.12,29.99,0,0,0,0.00
2013-7-15,89.1,77.7,66.8,70.0,65.7,62.0,85,68,50,30.17,30.07,0,0,0,0.00
2013-7-16,92.0,82.4,71.9,72.0,69.2,66.0,91,66,43,30.17,30.11,0,0,0,0.00
2013-7-17,93.3,83.3,71.8,72.0,69.3,67.0,89,65,43,30.21,30.07,0,0,0,0.00
2013-7-18,92.7,83.5,73.5,71.0,69.4,67.0,85,64,44,30.07,29.79,0,0,0,0.00
2013-7-19,89.0,81.6,71.0,71.0,64.4,57.0,73,57,38,29.85,29.71,0,0,0,0.00
2013-7-20,84.8,75.2,63.6,63.0,60.6,58.0,86,62,41,29.91,29.82,0,0,0,0.00
2013-7-21,85.5,74.9,68.2,67.0,63.8,57.0,83,70,39,29.86,29.72,0,0,0,0.00
2013-7-22,92.4,76.7,65.9,73.0,66.8,60.0,95,73,50,29.80,29.62,0,0,0,0.00
2013-7-23,75.0,67.7,60.0,60.0,56.7,54.0,86,69,50,29.96,29.79,0,0,0,0.00
2013-7-24,80.9,69.3,56.6,58.0,55.8,53.0,87,64,42,30.03,29.94,0,0,0,0.00
2013-7-25,85.8,71.9,63.2,66.0,62.3,57.0,96,74,46,29.97,29.84,0,0,0,1.59
2013-7-26,70.6,65.6,57.7,66.0,56.8,51.0,96,75,54,30.04,29.87,0,0,0,0.00
2013-7-27,68.1,59.1,50.2,51.0,46.6,43.0,89,66,42,30.07,29.94,0,0,0,0.00
2013-7-28,73.2,61.5,49.9,52.0,47.8,46.0,85,63,39,30.04,29.94,0,0,0,0.00
2013-7-29,76.7,65.1,51.9,60.0,52.3,49.0,89,66,41,30.08,30.02,0,0,0,0.00
2013-7-30,76.1,68.3,63.0,66.0,63.0,59.0,93,83,70,30.04,30.00,0,0,0,0.00
2013-7-31,80.7,71.3,61.3,66.0,61.9,57.0,97,75,47,30.05,29.97,0,0,0,0.00
2013-8-1,86.1,69.8,59.1,68.0,61.3,54.0,94,77,45,30.02,29.84,0,0,0,0.82
2013-8-2,74.9,68.1,63.0,65.0,61.9,59.0,93,81,59,30.00,29.83,0,0,0,0.05
2013-8-3,76.5,66.9,55.3,60.0,55.8,52.0,95,71,43,30.15,30.00,0,0,0,0.01
2013-8-4,79.8,69.1,55.6,61.0,56.9,53.0,91,67,46,30.17,29.96,0,0,0,0.00
2013-8-5,84.2,72.2,65.4,71.0,65.3,59.0,92,79,58,29.95,29.76,0,0,0,0.00
2013-8-6,86.7,75.4,63.6,70.0,67.0,63.0,96,77,53,29.80,29.69,0,0,0,0.00
2013-8-7,76.9,69.3,61.9,68.0,60.5,55.0,94,75,53,29.98,29.75,0,0,0,0.00
2013-8-8,77.5,66.9,57.1,63.0,57.5,52.0,84,73,53,30.03,29.93,0,0,0,0.00
2013-8-9,78.0,70.3,63.0,63.0,59.2,55.0,93,70,46,30.09,29.95,0,0,0,0.00
2013-8-10,80.1,68.3,57.6,64.0,58.9,55.0,91,74,50,30.15,30.03,0,0,0,0.01
2013-8-11,75.3,67.8,63.8,70.0,64.5,62.0,95,89,72,30.05,29.95,0,0,0,0.51
2013-8-12,77.6,69.0,60.4,64.0,59.6,55.0,97,75,46,30.03,29.97,0,0,0,0.01
2013-8-13,75.3,65.8,57.2,60.0,54.8,50.0,91,70,44,30.14,30.02,0,0,0,0.00
2013-8-14,76.0,64.7,53.0,56.0,51.6,47.0,90,65,37,30.18,30.08,0,0,0,0.00
2013-8-15,73.9,64.3,54.3,58.0,55.0,52.0,92,73,54,30.11,30.04,0,0,0,0.00
2013-8-16,78.3,65.9,53.4,59.0,55.6,52.0,97,72,45,30.17,30.10,0,0,0,0.00
2013-8-17,80.4,68.3,56.5,59.0,54.9,52.0,87,65,40,30.17,30.07,0,0,0,0.00
2013-8-18,80.9,69.5,57.5,62.0,57.3,55.0,90,68,43,30.11,30.00,0,0,0,0.00
2013-8-19,84.5,73.1,60.9,68.0,63.3,57.0,89,72,56,30.01,29.86,0,0,0,0.00
2013-8-20,88.3,78.7,70.6,74.0,69.0,65.0,83,73,60,29.88,29.80,0,0,0,0.00
2013-8-21,87.4,76.8,71.4,74.0,70.2,67.0,95,80,63,29.91,29.82,0,0,0,0.25
2013-8-22,82.4,75.1,68.2,71.0,69.1,66.0,95,82,66,30.03,29.91,0,0,0,0.80
2013-8-23,83.4,74.8,67.1,73.0,69.5,66.0,95,84,68,30.05,29.95,0,0,0,0.00
2013-8-24,86.6,75.2,70.4,75.0,67.3,-99.9,92,80,66,30.05,29.92,0,-21,0,0.02
2013-8-25,92.4,81.9,72.5,76.0,72.4,69.0,89,74,56,30.02,29.92,0,0,0,0.00
2013-8-26,93.5,82.7,73.3,76.0,73.1,70.0,89,74,53,29.96,29.81,0,0,0,0.00
2013-8-27,91.9,83.0,76.0,78.0,73.0,69.0,89,72,57,29.82,29.75,0,0,0,0.00
2013-8-28,92.6,83.5,74.2,80.0,77.0,73.0,95,81,61,29.90,29.81,0,0,0,0.00
2013-8-29,92.4,82.2,71.7,77.0,71.0,67.0,93,70,49,29.94,29.80,0,0,0,0.00
2013-8-30,87.7,78.7,70.7,76.0,71.3,67.0,91,78,61,29.81,29.77,0,0,0,0.00
2013-8-31,87.6,75.6,64.1,72.0,67.8,63.0,95,78,52,29.81,29.70,0,0,0,0.00
2013-9-1,77.0,70.4,60.7,71.0,62.1,56.0,91,76,58,29.93,29.66,0,0,0,0.05
2013-9-2,73.1,62.9,52.5,57.0,53.6,51.0,94,74,48,30.05,29.93,0,0,0,0.00
2013-9-3,79.9,65.0,51.9,62.0,55.5,50.0,94,74,45,30.08,29.96,0,0,0,0.01
2013-9-4,88.8,75.1,62.3,68.0,63.0,59.0,89,68,43,30.07,29.99,0,0,0,0.00
2013-9-5,88.1,77.8,67.5,68.0,65.6,64.0,89,68,47,30.12,30.03,0,0,0,0.00
2013-9-6,89.9,77.6,67.5,68.0,65.9,64.0,95,70,45,30.04,29.82,0,0,0,0.02
2013-9-7,90.2,79.6,69.1,76.0,70.4,65.0,88,74,59,29.86,29.79,0,0,0,0.00
2013-9-8,76.0,72.3,68.0,72.0,68.7,66.0,94,88,82,29.91,29.79,0,0,0,0.00
2013-9-9,97.8,80.6,67.9,71.0,66.8,62.0,96,68,31,29.79,29.64,0,0,0,0.00
2013-9-10,85.3,76.1,66.8,69.0,66.5,64.0,93,73,57,29.94,29.73,0,0,0,0.01
2013-9-11,85.4,74.4,66.9,67.0,62.6,58.0,92,69,40,30.02,29.93,0,0,0,0.00
2013-9-12,75.2,66.2,56.2,62.0,50.5,46.0,80,59,38,30.16,30.00,0,0,0,0.00
2013-9-13,71.4,59.9,48.0,51.0,47.1,45.0,89,65,40,30.23,30.07,0,0,0,0.00
2013-9-14,74.2,61.3,47.4,55.0,47.1,43.0,84,62,37,30.07,29.81,0,0,0,0.08
2013-9-15,65.6,61.5,53.6,57.0,55.5,52.0,94,81,70,30.24,29.76,0,0,0,0.11
2013-9-16,68.9,56.6,47.7,55.0,50.5,46.0,95,81,57,30.34,30.21,0,0,0,0.01
2013-9-17,62.0,56.7,52.8,61.0,54.9,50.0,97,94,86,30.23,29.90,0,0,0,0.01
2013-9-18,87.9,74.4,62.2,72.0,67.2,61.0,98,80,55,29.90,29.64,0,0,1,0.49
2013-9-19,81.4,73.3,62.5,70.0,65.6,53.0,87,77,60,29.81,29.59,0,0,0,0.03
2013-9-20,62.0,56.1,49.4,54.0,48.6,43.0,90,76,59,29.95,29.82,0,0,0,0.00
2013-9-21,72.1,56.7,43.4,48.0,44.3,40.0,88,66,36,30.00,29.86,0,0,0,0.00
2013-9-22,80.0,64.2,51.0,56.0,51.5,46.0,83,66,42,29.90,29.78,0,0,0,0.00
2013-9-23,75.9,62.7,51.3,54.0,51.2,49.0,91,69,43,29.88,29.77,0,0,0,0.00
2013-9-24,75.3,61.4,53.1,57.0,52.7,49.0,86,74,53,29.89,29.83,0,0,0,0.00
2013-9-25,76.5,63.6,50.9,56.0,52.7,48.0,91,70,44,29.92,29.77,0,0,0,0.00
2013-9-26,81.5,63.8,57.1,62.0,56.1,53.0,89,77,49,29.85,29.77,0,0,0,0.00
2013-12-11,2.4,1.2,1.5,-5.0,-37.1,-99.9,72,48,70,30.70,0.00,9,-329,11,0.00